Hutchinson, MN

10:45 AM CST on November 18, 2017 (GMT -0600)
Hutchinson Municipal-Butler

Weather History for KHCD - December, 2011

Change the Weather History Date:

Saturday, December 17, 2011

  Actual Average Record
Temperature  
Mean Temperature 30 °F -  
Max Temperature 36 °F 27 °F 51 °F (1962)
Min Temperature 23 °F 9 °F -25 °F (1983)
Degree Days  
Heating Degree Days 36    
Moisture  
Dew Point 25 °F    
Average Humidity 85    
Maximum Humidity 93    
Minimum Humidity 72    
Precipitation  
Precipitation 0.00 in - - ()
Sea Level Pressure  
Sea Level Pressure 30.17 in    
Wind  
Wind Speed 6 mph (SW)    
Max Wind Speed 20 mph    
Max Gust Speed 24 mph    
Visibility 10 miles    
Events Snow    
Averages and records for this station are not official NWS values.
T = Trace of Precipitation, MM = Missing Value Source: NWS Daily Summary

Daily Weather History Graph

Daily Weather History Graph

Search for Another Location

Airport or City:

Trip Planner

Search our weather history database for the weather conditions in past years. The results will help you decide how hot, cold, wet, or windy it might be!

Date:

Astronomy

Dec. 17, 2011 Rise Set
Actual Time 7:49 AM CST 4:37 PM CST
Civil Twilight 7:15 AM CST 5:11 PM CST
Nautical Twilight 6:38 AM CST 5:48 PM CST
Astronomical Twilight 6:03 AM CST 6:24 PM CST
Moon No Moon Rise 11:48 AM CST (12/17)
Length of Visible Light 9h 55m
Length of Day
8h 47m
Waning Gibbous, 53% of the Moon is Illuminated
Dec 17
Waning Gibbous
Dec 17
Last Quarter
Dec 24
New
Jan 1
First Quarter
Jan 9
Full

Hourly Weather History & Observations

Time (CST) Temp. Windchill Dew Point Humidity Pressure Visibility Wind Dir Wind Speed Gust Speed Precip Events Conditions
12:12 AM 23.4 °F 18.9 °F 19.4 °F 85% 30.28 in 10.0 mi East 3.5 mph - N/A Snow Light Snow
12:32 AM 23.4 °F 18.9 °F 19.6 °F 85% 30.27 in 10.0 mi East 3.5 mph - N/A   Overcast
12:52 AM 23.4 °F 18.9 °F 19.9 °F 87% 30.27 in 10.0 mi ENE 3.5 mph - N/A Snow Light Snow
1:13 AM 23.5 °F - 20.1 °F 87% 30.27 in 10.0 mi Calm Calm - N/A   Overcast
1:33 AM 23.4 °F - 19.9 °F 87% 30.26 in 10.0 mi Calm Calm - N/A   Overcast
1:53 AM 23.4 °F - 20.1 °F 87% 30.26 in 10.0 mi Calm Calm - N/A   Overcast
2:12 AM 23.4 °F - 20.3 °F 88% 30.26 in 10.0 mi Calm Calm - N/A   Overcast
2:33 AM 23.4 °F - 20.3 °F 88% 30.26 in 10.0 mi Calm Calm - N/A   Overcast
2:52 AM 23.9 °F - 21.0 °F 89% 30.25 in 10.0 mi Calm Calm - N/A   Overcast
3:13 AM 24.6 °F - 21.9 °F 89% 30.25 in 10.0 mi Calm Calm - N/A   Overcast
3:33 AM 24.6 °F - 22.1 °F 90% 30.24 in 10.0 mi Calm Calm - N/A   Overcast
3:52 AM 24.6 °F 18.8 °F 22.1 °F 90% 30.23 in 10.0 mi SSE 4.6 mph - N/A   Overcast
4:12 AM 24.6 °F - 22.1 °F 90% 30.23 in 10.0 mi Calm Calm - N/A   Overcast
4:32 AM 24.6 °F - 22.5 °F 91% 30.22 in 10.0 mi Calm Calm - N/A   Overcast
4:53 AM 24.6 °F 20.3 °F 22.8 °F 93% 30.21 in 10.0 mi South 3.5 mph - N/A   Overcast
5:13 AM 24.6 °F 18.8 °F 22.8 °F 93% 30.21 in 10.0 mi South 4.6 mph - N/A   Overcast
5:33 AM 24.6 °F 18.8 °F 22.8 °F 93% 30.21 in 10.0 mi SSW 4.6 mph - N/A   Overcast
5:52 AM 24.6 °F 18.8 °F 22.8 °F 93% 30.20 in 10.0 mi South 4.6 mph - N/A   Overcast
6:12 AM 24.6 °F 18.8 °F 22.8 °F 93% 30.20 in 10.0 mi South 4.6 mph - N/A   Overcast
6:33 AM 24.6 °F 17.7 °F 22.6 °F 92% 30.19 in 10.0 mi South 5.8 mph - N/A   Overcast
7:12 AM 24.8 °F 17.9 °F 23.0 °F 93% 30.18 in 10.0 mi SSW 5.8 mph - N/A   Overcast
7:33 AM 25.7 °F 19.0 °F 23.9 °F 93% 30.17 in 10.0 mi SSW 5.8 mph - N/A   Overcast
7:52 AM 25.7 °F 17.1 °F 23.7 °F 92% 30.16 in 10.0 mi SSW 8.1 mph - N/A   Overcast
8:13 AM 27.1 °F 20.7 °F 24.8 °F 91% 30.15 in 10.0 mi SSW 5.8 mph - N/A   Overcast
8:33 AM 27.1 °F 20.7 °F 24.8 °F 91% 30.15 in 7.0 mi South 5.8 mph - N/A   Overcast
8:53 AM 27.1 °F 19.7 °F 24.8 °F 91% 30.14 in 7.0 mi SSW 6.9 mph - N/A   Scattered Clouds
9:13 AM 27.1 °F 18.9 °F 24.6 °F 90% 30.14 in 7.0 mi SSW 8.1 mph - N/A   Clear
9:33 AM 29.7 °F 20.7 °F 26.6 °F 88% 30.15 in 7.0 mi SW 10.4 mph - N/A   Clear
9:53 AM 29.7 °F 20.1 °F 26.1 °F 86% 30.13 in 7.0 mi SSW 11.5 mph - N/A   Clear
10:12 AM 29.7 °F 20.1 °F 25.5 °F 85% 30.14 in 10.0 mi SW 11.5 mph 16.1 mph N/A   Clear
10:33 AM 32.0 °F 24.2 °F 26.6 °F 80% 30.16 in 10.0 mi SW 9.2 mph - N/A   Clear
10:53 AM 32.0 °F 23.6 °F 26.2 °F 79% 30.13 in 10.0 mi SW 10.4 mph - N/A   Clear
11:13 AM 34.3 °F 25.0 °F 28.0 °F 78% 30.13 in 10.0 mi SW 13.8 mph - N/A   Clear
11:33 AM 34.3 °F 25.9 °F 27.5 °F 76% 30.12 in 10.0 mi WSW 11.5 mph 17.3 mph N/A   Clear
11:52 AM 34.3 °F 25.0 °F 27.3 °F 76% 30.10 in 10.0 mi SW 13.8 mph 21.9 mph N/A   Clear
12:12 PM 35.2 °F 24.4 °F 27.9 °F 74% 30.11 in 10.0 mi West 19.6 mph 24.2 mph N/A   Scattered Clouds
12:33 PM 35.1 °F 24.8 °F 27.9 °F 75% 30.10 in 10.0 mi West 17.3 mph - N/A   Scattered Clouds
12:53 PM 36.9 °F 27.1 °F 28.6 °F 72% 30.10 in 10.0 mi West 17.3 mph 21.9 mph N/A   Scattered Clouds
1:13 PM 36.9 °F 27.8 °F 28.6 °F 72% 30.09 in 10.0 mi West 15.0 mph - N/A   Clear
1:33 PM 35.6 °F 25.2 °F 27.5 °F 72% 30.09 in 10.0 mi West 18.4 mph - N/A   Clear
1:53 PM 34.3 °F 24.2 °F 26.6 °F 73% 30.10 in 10.0 mi West 16.1 mph 20.7 mph N/A   Clear
2:33 PM 35.4 °F 25.3 °F 27.1 °F 72% 30.09 in 10.0 mi West 17.3 mph 21.9 mph N/A   Clear
2:53 PM 34.3 °F 24.2 °F 26.4 °F 73% 30.10 in 10.0 mi West 16.1 mph - N/A   Clear
3:13 PM 34.3 °F 24.6 °F 26.2 °F 72% 30.10 in 10.0 mi West 15.0 mph - N/A   Clear
3:33 PM 34.3 °F 26.5 °F 26.4 °F 73% 30.10 in 10.0 mi West 10.4 mph - N/A   Clear
3:52 PM 34.3 °F 26.5 °F 27.0 °F 74% 30.11 in 10.0 mi West 10.4 mph - N/A   Clear
4:12 PM 34.3 °F 26.5 °F 27.5 °F 76% 30.12 in 10.0 mi West 10.4 mph - N/A   Clear
4:33 PM 34.0 °F 27.2 °F 28.4 °F 80% 30.12 in 10.0 mi West 8.1 mph - N/A   Clear
4:52 PM 32.0 °F 24.8 °F 27.3 °F 83% 30.13 in 10.0 mi West 8.1 mph - N/A   Clear
5:13 PM 30.7 °F 24.1 °F 26.4 °F 84% 30.13 in 10.0 mi West 6.9 mph - N/A   Clear
5:33 PM 29.7 °F 23.7 °F 26.1 °F 86% 30.13 in 10.0 mi WSW 5.8 mph - N/A   Clear
6:13 PM 29.7 °F 23.7 °F 26.4 °F 88% 30.14 in 10.0 mi WSW 5.8 mph - N/A   Clear
6:33 PM 29.7 °F 24.7 °F 26.4 °F 88% 30.14 in 10.0 mi WSW 4.6 mph - N/A   Clear
6:52 PM 29.7 °F 22.8 °F 26.4 °F 88% 30.14 in 10.0 mi WSW 6.9 mph - N/A   Clear
7:13 PM 29.7 °F 23.7 °F 26.2 °F 87% 30.13 in 10.0 mi WSW 5.8 mph - N/A   Clear
7:32 PM 27.1 °F 20.7 °F 23.9 °F 88% 30.14 in 10.0 mi WSW 5.8 mph - N/A   Clear
7:52 PM 27.1 °F 21.8 °F 24.3 °F 89% 30.14 in 10.0 mi WSW 4.6 mph - N/A   Clear
8:13 PM 27.1 °F 20.7 °F 23.9 °F 88% 30.14 in 10.0 mi WSW 5.8 mph - N/A   Clear
8:33 PM 27.1 °F 20.7 °F 23.9 °F 88% 30.14 in 10.0 mi West 5.8 mph - N/A   Clear
8:52 PM 26.6 °F 20.0 °F 23.0 °F 86% 30.15 in 10.0 mi WSW 5.8 mph - N/A   Clear
9:13 PM 25.3 °F 19.7 °F 21.7 °F 86% 30.15 in 10.0 mi West 4.6 mph - N/A   Clear
9:33 PM 25.0 °F - 20.8 °F 84% 30.14 in 10.0 mi Calm Calm - N/A   Clear
9:53 PM 25.5 °F - 21.9 °F 86% 30.13 in 10.0 mi Calm Calm - N/A   Clear
10:13 PM 24.6 °F - 21.0 °F 86% 30.12 in 10.0 mi Calm Calm - N/A   Clear
10:32 PM 21.2 °F - 17.8 °F 87% 30.12 in 10.0 mi Calm Calm - N/A   Clear
10:52 PM 20.8 °F - 18.0 °F 89% 30.12 in 10.0 mi Calm Calm - N/A   Clear
11:13 PM 22.1 °F - 19.4 °F 89% 30.11 in 10.0 mi Calm Calm - N/A   Clear
11:32 PM 22.5 °F - 19.8 °F 89% 30.11 in 10.0 mi Calm Calm - N/A   Clear
11:53 PM 20.8 °F 16.0 °F 18.0 °F 89% 30.11 in 10.0 mi South 3.5 mph - N/A   Clear